Location: Eppenhof
(49.8296°N, 12.0226°E)
Time: 13:49:51
(UTC+00:00)

Daily predictions for brighter satellites

Satellite Brightness Start Highest point End
(mag) Time Altitude Azimuth Time Altitude Azimuth Time Altitude Azimuth
Cosmos 1674 2.9 18:05:54 10° NNW 18:09:41 75° W 18:13:23 10° S
Cosmos 1110 Rocket 4.1 18:04:30 10° NNW 18:09:49 89° WSW 18:15:01 10° SSE
STARLINK-1130 (DARKSAT) 3.9 18:05:45 10° WNW 18:09:53 63° NNE 18:14:00 10° E
Meteor 1-22 Rocket 4.3 18:05:00 10° SSE 18:10:05 50° E 18:15:11 10° NNE
STARLINK-1100 3.9 18:06:16 10° WNW 18:10:19 65° SSW 18:14:21 10° SE
STARLINK-1216 4.1 18:06:35 10° SSW 18:10:21 39° SE 18:14:09 10° ENE
ARGOS Delta rocket 4.2 18:05:43 10° SSE 18:10:47 61° ENE 18:16:06 10° N
Aureole 2 Rocket 4.5 18:08:56 10° NNE 18:10:58 15° NE 18:12:59 10° E
ATLAS CENTAUR R/B 4.0 18:08:14 10° WNW 18:11:18 18° NNW 18:14:16 10° NNE
IRS-1A Rocket 4.4 18:06:05 10° SSE 18:11:40 64° ENE 18:17:24 10° N
Cosmos 1553 Rocket 4.0 18:06:50 10° S 18:12:54 89° W 18:19:03 10° N
NOSS 2-1 (E) 3.4 18:09:38 10° SW 18:13:01 71° NW 18:16:54 10° NE
Cosmos 2219 Rocket 3.6 18:07:45 10° WSW 18:13:08 43° NW 18:18:32 10° NNE
STARLINK-1084 3.8 18:10:44 10° WNW 18:14:52 65° NNE 18:18:59 10° E
STARLINK-1083 4.0 18:11:02 10° WNW 18:15:03 61° SSW 18:19:05 10° SE
STARLINK-1237 4.1 18:11:17 10° SW 18:15:07 42° SE 18:18:57 10° ENE
KORONAS-FOTON 4.2 18:12:51 10° NNW 18:16:41 69° W 18:20:27 10° S
Cosmos 1943 Rocket 2.9 18:12:25 10° NNW 18:17:31 36° NE 18:22:38 10° ESE
STARLINK-1209 2.7 18:14:54 10° WSW 18:17:49 74° SSE 18:20:45 10° ENE
ATLAS 2AS CENTAUR R/B 4.0 18:12:24 10° NW 18:19:26 34° NNE 18:26:03 10° E
STARLINK-1125 4.0 18:15:36 10° WNW 18:19:37 58° SSW 18:23:37 10° SE
STARLINK-1202 4.0 18:15:57 10° SW 18:19:49 45° SE 18:23:42 10° ENE
STARLINK-1098 3.8 18:15:43 10° WNW 18:19:51 67° NNE 18:24:00 10° E
STARLINK-1228 2.6 18:17:06 10° WSW 18:19:58 76° SSE 18:22:52 10° ENE
SL-14 R/B 3.5 18:16:46 10° N 18:20:46 55° ENE 18:24:43 10° SSE
Cosmos 1980 4.0 18:18:39 10° SSW 18:24:20 77° WNW 18:30:04 10° NNE
STARLINK-1109 4.1 18:20:21 10° WNW 18:24:21 54° SSW 18:28:20 10° SE
SL-8 R/B 3.7 18:20:03 10° W 18:24:49 77° S 18:29:36 10° E
STARLINK-1123 3.8 18:20:42 10° WNW 18:24:51 70° NNE 18:28:51 11° E
ERBS 3.2 18:23:21 10° WSW 18:26:40 49° NNW 18:29:58 10° NE
STARLINK-1246 3.9 18:22:55 10° SW 18:26:52 50° SSE 18:30:51 10° ENE
Cosmos 2315 Rocket 4.3 18:23:07 10° SSE 18:29:08 49° E 18:35:14 10° NNE
STARLINK-1091 4.2 18:25:11 10° WNW 18:29:09 51° SSW 18:33:07 10° SE
Cosmos 1766 3.5 18:25:27 10° SSW 18:29:26 78° W 18:33:26 10° N
STARLINK-1097 3.7 18:25:41 10° WNW 18:29:49 72° NNE 18:33:37 12° ESE
ADEOS Rocket 3.7 18:23:44 10° N 18:30:36 68° WNW 18:36:43 10° SSW
USA 234 3.8 18:25:00 10° ENE 18:30:55 35° SE 18:36:49 10° SSW
STARLINK-67 2.6 18:29:34 10° WSW 18:32:08 69° NNW 18:34:43 10° ENE
Resurs 1-3 4.5 18:28:31 10° SE 18:32:23 31° ENE 18:36:17 10° N
STARLINK-1201 2.9 18:29:22 10° WSW 18:32:37 73° SSE 18:35:53 10° ENE
Cosmos 1626 2.0 18:29:35 10° N 18:33:19 71° E 18:37:00 10° SSE
STARLINK-1224 3.7 18:30:06 10° SW 18:34:04 54° SSE 18:38:03 10° ENE
Meteor 2-8 Rocket 4.4 18:28:04 10° S 18:34:12 77° E 18:40:20 10° NNE
STARLINK-1099 3.7 18:30:40 10° WNW 18:34:49 75° NNE 18:38:25 14° ESE
STARLINK-1203 3.6 18:31:46 10° SW 18:35:41 59° SSE 18:39:36 10° ENE
H-2A R/B 2.1 18:30:26 10° SSE 18:35:44 83° ENE 18:40:57 10° NNW
SL-16 R/B 2.3 18:32:46 10° S 18:38:15 55° ESE 18:43:47 10° NE
STARLINK-1225 3.7 18:34:42 10° SW 18:38:41 58° SSE 18:42:42 10° ENE
STARLINK-1072 4.4 18:35:32 10° WNW 18:39:22 43° SW 18:43:08 10° SE
STARLINK-1104 3.7 18:35:39 10° WNW 18:39:49 78° NNE 18:43:12 15° ESE
SL-08 RB Rocket 3.8 18:35:56 10° SSE 18:40:21 57° ENE 18:44:51 10° N
TSX-5 4.3 18:34:44 10° NNW 18:40:25 77° NE 18:44:38 10° SE
Cosmos 2333 Rocket 4.3 18:35:55 10° WSW 18:40:53 30° NW 18:45:50 10° NNE
Resurs 01 Rocket 2.6 18:38:54 13° ESE 18:42:10 29° ENE 18:45:58 10° N
STARLINK-1230 3.6 18:39:25 10° SW 18:43:26 62° SSE 18:47:27 10° ENE
STARLINK-1144 3.6 18:40:38 10° WNW 18:44:48 81° NNE 18:47:59 17° ESE
Meteor 2-15 4.5 18:40:01 10° S 18:45:53 56° E 18:51:49 10° NNE
STARLINK-1233 2.8 18:42:53 10° WSW 18:46:01 89° SSE 18:48:52 12° ENE
FREGAT/IRIS 2.6 18:43:42 10° S 18:46:24 70° W 18:49:08 10° NNW
STARLINK-1212 2.8 18:43:21 10° WSW 18:46:29 90° SSE 18:49:17 12° ENE
STARLINK-1105 2.8 18:43:47 10° WSW 18:46:55 90° WSW 18:49:44 13° ENE
Cosmos 1302 Rocket 4.0 18:41:54 10° NNW 18:47:13 89° WSW 18:52:30 10° SSE
STARLINK-1206 2.8 18:44:17 10° WSW 18:47:24 89° WNW 18:50:09 13° ENE
STARLINK-1247 2.8 18:44:43 10° WSW 18:47:50 89° NW 18:50:34 13° ENE
STARLINK-1243 3.6 18:44:12 10° SW 18:48:14 65° SSE 18:52:10 11° ENE
STARLINK-1227 2.8 18:45:08 10° WSW 18:48:17 89° NNW 18:51:02 13° ENE
STARLINK-1218 2.8 18:45:37 10° WSW 18:48:45 88° NNW 18:51:26 13° ENE
Cosmos 1992 Rocket 4.5 18:44:04 10° NNW 18:49:03 43° ENE 18:52:57 16° SE
Abrixas rocket 3.8 18:47:13 10° S 18:49:05 15° SSE 18:49:06 15° SSE
STARLINK-1226 2.8 18:46:04 10° WSW 18:49:12 88° NNW 18:51:53 13° ENE
STARLINK-1254 2.8 18:46:30 10° WSW 18:49:38 87° NNW 18:52:20 13° ENE
STARLINK-1103 3.6 18:45:37 10° WNW 18:49:46 84° NNE 18:52:45 18° ESE
SeaSat 1 4.1 18:45:23 10° NNE 18:49:54 37° NW 18:54:24 10° WSW
STARLINK-1215 2.8 18:46:59 10° WSW 18:50:06 87° NNW 18:52:45 14° ENE
Cosmos 1709 Rocket 4.0 18:43:52 10° N 18:50:08 89° W 18:56:17 10° S
STARLINK-1231 2.8 18:47:25 10° WSW 18:50:32 86° NNW 18:53:10 14° ENE
Cosmos 1953 3.2 18:47:45 10° SSE 18:51:10 28° E 18:54:37 10° NNE
STARLINK-1232 2.8 18:48:19 10° WSW 18:51:27 85° NNW 18:54:03 14° ENE
STARLINK-1217 2.8 18:48:47 10° WSW 18:51:54 85° NNW 18:54:28 14° ENE
STARLINK-1208 2.9 18:49:11 10° WSW 18:52:19 85° NNW 18:54:56 14° ENE
STARLINK-1229 2.8 18:49:40 10° WSW 18:52:47 84° NNW 18:55:20 15° ENE
STARLINK-1236 3.5 18:48:57 10° SW 18:53:01 69° SSE 18:56:45 12° ENE
STARLINK-1271 2.8 18:50:07 10° WSW 18:53:15 84° NNW 18:55:47 15° ENE
STARLINK-1270 2.9 18:50:35 10° WSW 18:53:43 83° NNW 18:56:12 15° ENE
STARLINK-1154 2.9 18:51:02 10° WSW 18:54:10 83° NNW 18:56:39 15° ENE
STARLINK-1101 3.6 18:50:36 10° WNW 18:54:45 88° NNE 18:57:32 20° ESE
MONITOR-E 4.4 18:52:20 10° S 18:54:56 55° WSW 18:57:33 10° NNW
STARLINK-1197 2.9 18:51:56 10° WSW 18:55:04 82° NNW 18:57:31 15° ENE
Cosmos 1269 Rocket 4.0 18:49:50 10° SSW 18:55:07 89° ESE 19:00:29 10° NNE
STARLINK-1189 2.9 18:52:23 10° WSW 18:55:31 82° NNW 18:57:57 16° ENE
STARLINK-1187 3.0 18:53:14 10° WSW 18:56:22 76° NNW 18:58:50 15° ENE
STARLINK-1198 2.9 18:53:18 10° WSW 18:56:25 81° NNW 18:58:48 16° ENE
STARLINK-1188 2.9 18:53:17 10° WSW 18:56:25 81° NNW 18:58:48 16° ENE
SL-24 R/B 4.4 18:52:10 10° NNE 18:56:38 44° E 19:00:33 10° S
STARLINK-1235 3.1 18:53:57 10° WSW 18:57:05 70° NNW 18:59:33 15° ENE
CZ-4C R/B 4.2 18:52:40 10° WNW 18:57:32 27° NNW 19:03:13 10° NE
STARLINK-1199 2.9 18:55:14 10° WSW 18:58:23 79° NNW 19:00:44 17° ENE
STARLINK-1191 2.9 18:55:40 10° WSW 18:58:49 79° NNW 19:01:10 17° ENE
STARLINK-1210 2.9 18:56:08 10° WSW 18:59:16 78° NNW 19:01:36 17° ENE
STARLINK-1221 2.9 18:56:35 10° WSW 18:59:43 78° NNW 19:02:02 17° ENE
STARLINK-1102 3.6 18:55:34 10° WNW 18:59:44 88° SSW 19:02:19 22° ESE
STARLINK-1219 2.9 18:57:02 10° WSW 19:00:11 77° NNW 19:02:29 17° ENE
STARLINK-1222 2.9 18:57:30 10° WSW 19:00:38 77° NNW 19:02:54 17° ENE
ISS -3.8 18:57:33 10° WNW 19:00:55 85° NNE 19:02:41 26° ESE
STARLINK-1211 3.0 18:57:57 10° WSW 19:01:04 77° NNW 19:03:20 17° ENE
STARLINK-1214 3.0 18:58:23 10° WSW 19:01:32 76° NNW 19:03:45 18° ENE
Cosmos 2297 4.3 18:56:05 10° NW 19:01:38 58° WSW 19:07:12 10° S
STARLINK-1245 2.9 18:58:52 10° WSW 19:01:59 76° NNW 19:04:10 18° ENE
STARLINK-1238 3.0 18:59:15 10° WSW 19:02:24 76° NNW 19:04:37 18° ENE
Cosmos 1455 Rocket 3.9 18:58:31 10° SSW 19:02:46 54° WNW 19:07:05 10° N
Cosmos 2251 Rocket 4.1 18:58:02 10° SSE 19:02:48 34° ESE 19:07:38 10° NE
STARLINK-1269 3.5 18:58:45 10° WSW 19:02:50 78° SSE 19:06:12 15° ENE
Cosmos 2074 Rocket 4.2 18:56:54 10° N 19:03:00 51° ENE 19:08:16 14° SSE
STARLINK-1205 3.0 19:00:11 10° WSW 19:03:18 75° NNW 19:05:26 19° ENE
BREEZE-M DEB (TANK) 3.7 18:55:41 10° W 19:03:26 85° S 19:05:20 24° ESE
STARLINK-1204 3.0 19:00:40 10° WSW 19:03:47 74° NNW 19:05:54 19° ENE
Cosmos 2084 Rocket 3.5 18:59:41 10° NW 19:04:10 73° NE 19:06:58 22° SE
STARLINK-1111 3.6 19:00:33 10° WNW 19:04:43 85° SSW 19:07:06 24° ESE
Cosmos 1703 4.4 19:04:11 10° NNE 19:07:31 26° ENE 19:08:26 23° E
STARLINK-1200 3.5 19:03:33 10° WSW 19:07:38 82° SSE 19:10:50 16° ENE
Cosmos 2237 Rocket 3.5 19:02:37 10° WSW 19:07:58 43° NW 19:13:22 10° NNE
CZ-2C R/B 2.9 19:03:23 10° NNE 19:08:16 40° E 19:13:06 10° SSE
Cosmos 1626 Rocket 3.8 19:04:37 10° NNW 19:09:02 72° W 19:13:22 10° S
STARLINK-1073 3.6 19:05:32 10° WNW 19:09:42 81° SSW 19:11:53 27° ESE
STARLINK-1192 3.5 19:08:18 10° WSW 19:12:24 85° SSE 19:15:24 18° ENE
STARLINK-1121 3.6 19:10:30 10° WNW 19:14:39 77° SSW 19:16:39 29° SE
Cosmos 292 Rocket 3.7 19:10:43 10° NNW 19:15:30 72° ENE 19:18:32 23° SE
ARGOS 3.8 19:10:56 10° S 19:16:14 56° W 19:21:33 10° NNW
Cosmos 1602 Rocket 3.7 19:12:34 10° NNW 19:17:03 76° W 19:21:28 10° S
STARLINK-1244 3.5 19:13:13 10° WSW 19:17:18 89° S 19:20:08 20° ENE
Cosmos 1656 Rocket 4.4 19:12:34 10° NNW 19:17:55 39° NE 19:20:40 24° ESE
IRIDIUM 104 4.2 19:13:08 10° N 19:18:24 77° E 19:23:36 10° S
STARLINK-1106 3.6 19:15:28 10° WNW 19:19:36 72° SSW 19:21:25 32° SE
STARLINK-1138 3.5 19:17:49 10° WSW 19:21:55 87° NNW 19:24:34 21° ENE
MOS 1 Rocket 3.6 19:17:32 10° NNE 19:22:40 56° E 19:27:58 10° S
STARLINK-1234 3.4 19:19:58 10° W 19:22:53 52° NNW 19:24:04 30° NE
USA 186 4.0 19:20:37 10° SSW 19:23:36 27° W 19:26:33 10° NW
STARLINK-1112 3.7 19:20:29 10° WNW 19:24:37 68° SSW 19:26:14 35° SE
STARLINK-1143 3.6 19:22:43 10° WSW 19:26:49 84° NNW 19:29:16 23° ENE
MetOp-A 4.2 19:21:29 10° S 19:26:51 77° WSW 19:32:14 10° NNW
IRIDIUM 114 4.3 19:22:18 10° N 19:27:34 90° W 19:32:47 10° S
CZ-2C R/B 4.2 19:24:02 10° SSW 19:28:45 39° W 19:33:18 10° NNW
COSMOS 2455 4.2 19:23:42 10° NNW 19:28:46 27° NNE 19:32:01 17° ENE
STARLINK-1128 3.8 19:25:28 10° WNW 19:29:34 64° SSW 19:31:01 37° SE
Cosmos 1437 2.6 19:28:26 10° N 19:31:25 56° ENE 19:31:25 56° ENE
Cosmos 1470 3.6 19:28:35 10° SSW 19:32:21 50° WNW 19:36:11 10° N
Cosmos 1726 Rocket 4.1 19:33:41 35° E 19:33:50 35° E 19:37:53 10° NNE
STARLINK-1113 3.8 19:30:27 10° WNW 19:34:33 60° SSW 19:35:47 40° SSE
STARLINK-1241 3.6 19:31:05 10° WSW 19:35:09 78° NNW 19:37:12 28° ENE
SPOT 3 Rocket 4.1 19:30:12 10° S 19:35:21 60° WSW 19:40:32 10° NNW
Cosmos 1825 Rocket 3.5 19:31:43 10° N 19:36:09 70° E 19:37:53 35° SSE
IRIDIUM 103 4.5 19:31:30 10° N 19:36:44 76° W 19:41:56 10° S
NOSS 3-4 (A) 4.2 19:32:12 10° NW 19:38:47 51° NE 19:42:42 27° E
NOSS 3-4 (C) 4.2 19:32:18 10° NW 19:38:53 50° NE 19:42:48 27° E
STARLINK-1119 3.9 19:35:26 10° WNW 19:39:30 57° SSW 19:40:34 42° SSE
STARLINK-1239 3.6 19:36:02 10° WSW 19:40:04 75° NNW 19:41:56 31° ENE
Cosmos 2369 Rocket 2.2 19:34:24 10° NNW 19:40:09 85° WSW 19:43:14 28° SSE
Cosmos 2327 Rocket 4.5 19:34:51 10° N 19:41:06 67° ENE 19:44:38 27° SSE
Cosmos 1726 2.0 19:42:57 44° S 19:44:01 76° E 19:47:47 10° NNE
STARLINK-1114 4.0 19:40:28 10° WNW 19:44:30 53° SSW 19:45:24 43° SSE
STARLINK-1240 3.7 19:40:45 10° WSW 19:44:48 72° NNW 19:46:29 34° ENE
Aureole 2 Rocket 2.7 19:41:40 10° NNW 19:45:10 61° WSW 19:45:56 46° SSW
Cosmos 1758 Rocket 3.5 19:41:32 10° NNW 19:45:56 81° W 19:47:54 32° S
Cosmos 2263 4.1 19:40:33 10° NNW 19:46:13 82° ENE 19:48:35 36° SE
Cosmos 1908 4.0 19:48:57 36° ENE 19:48:57 36° ENE 19:51:44 10° NNE
SAR-Lupe-2 4.0 19:44:36 10° NNE 19:47:28 46° ENE 19:47:28 46° ENE
CZ-2C R/B 4.4 19:43:36 10° N 19:48:18 59° WNW 19:52:55 10° SSW
STARLINK-1130 (DARKSAT) 4.0 19:45:26 10° WNW 19:49:27 50° SSW 19:50:10 44° S
STARLINK-1216 3.7 19:45:31 10° W 19:49:33 70° NNW 19:51:02 37° ENE
NOSS 3-3 (A) 4.0 19:43:56 10° SSW 19:49:37 53° ESE 19:56:01 10° NE
NOSS 3-3 (C) 4.0 19:44:03 10° SSW 19:49:43 53° ESE 19:56:07 10° NE
Meteor 2-17 Rocket 4.4 19:44:54 10° N 19:51:02 68° ENE 19:53:46 34° SSE
ATLAS CENTAUR R/B 4.3 19:51:08 10° NNW 19:51:50 10° N 19:52:32 10° N
Cosmos 1953 Rocket 3.5 19:47:59 10° N 19:52:27 71° E 19:53:22 53° SE
STARLINK-1209 3.7 19:50:05 10° W 19:52:50 43° NNW 19:52:50 43° NNW
Terra 3.1 19:53:53 25° ENE 19:54:02 25° ENE 19:57:52 10° N
STARLINK-1237 3.8 19:50:18 10° W 19:54:21 68° NNW 19:55:38 40° NE
STARLINK-1084 4.1 19:50:25 10° WNW 19:54:24 46° SW 19:54:56 44° S
Cosmos 2184 Rocket 4.1 19:48:38 10° NNW 19:54:59 77° W 19:59:37 19° S
STARLINK-1228 3.8 19:52:17 10° W 19:54:50 41° NNW 19:54:50 41° NNW
Spot 2 Rocket 3.4 19:55:42 43° SSE 19:57:23 76° ENE 20:02:31 10° NNW
STARLINK-1202 3.8 19:55:03 10° W 19:59:06 66° NNW 20:00:12 44° NE
STARLINK-1098 4.2 19:55:25 10° WNW 19:59:22 43° SW 19:59:43 42° SSW
Cosmos 1606 Rocket 3.4 19:59:07 50° S 20:00:14 79° E 20:04:43 10° NNE
Cosmos 1943 Rocket 2.9 19:56:08 10° NW 20:01:25 46° WSW 20:04:35 23° S
SPOT 1/Viking Rocket 3.7 20:00:50 47° ESE 20:01:52 56° ENE 20:07:00 10° N
ERBS 4.3 20:00:43 10° WNW 20:03:32 24° N 20:04:36 20° NNE
STARLINK-1123 4.3 20:00:25 10° WNW 20:04:19 40° SW 20:04:30 40° SSW
Cosmos 1943 3.1 20:01:04 21° S 20:04:45 60° ESE 20:10:22 10° NE
STARLINK-1246 3.9 20:02:16 10° W 20:06:21 63° NNW 20:07:11 49° NE
Meteor 2-10 4.2 20:01:26 10° SSW 20:06:47 75° WNW 20:12:22 10° N
SL-8 R/B 3.8 20:02:32 10° W 20:07:14 57° SSW 20:07:34 56° S
STARLINK-1201 4.0 20:05:49 10° W 20:08:41 45° NNW 20:08:41 45° NNW
STARLINK-1097 4.5 20:05:24 10° WNW 20:09:16 38° SW 20:09:17 38° SW
ATLAS 2AS CENTAUR R/B 2.9 20:03:59 10° NW 20:11:44 72° NE 20:14:22 43° ESE
STARLINK-1224 3.9 20:09:26 10° W 20:13:28 60° N 20:13:58 55° NNE
Cosmos 1340 Rocket 4.3 20:15:29 27° NE 20:15:29 27° NE 20:17:32 10° NNE
USA 234 3.2 20:07:50 10° ENE 20:14:25 88° NW 20:20:58 10° WSW
STARLINK-1203 3.9 20:10:49 10° W 20:14:45 58° N 20:15:06 55° NNE
Cosmos 2154 Rocket 4.0 20:09:42 10° N 20:16:06 81° W 20:18:59 35° S
USA 245 4.1 20:15:17 52° S 20:16:37 84° WSW 20:22:34 10° NNW
STARLINK-1225 4.0 20:14:02 10° W 20:18:04 59° N 20:18:23 57° NNE
Resurs 01 Rocket 2.9 20:16:28 23° SSW 20:18:34 36° W 20:22:40 10° NNW
Cosmos 1328 4.2 20:16:12 10° NNW 20:20:08 57° W 20:20:25 55° WSW
Cosmos 921 Rocket 3.8 20:18:05 10° N 20:21:21 39° NNE 20:21:21 39° NNE
SL-16 R/B 3.9 20:17:37 10° WSW 20:22:41 33° NW 20:27:46 10° NNE
STARLINK-1230 4.0 20:18:48 10° W 20:22:50 58° N 20:22:57 58° N
Cosmos 2228 3.3 20:22:39 53° SW 20:23:25 65° WNW 20:27:44 10° N
Cosmos 967 Rocket 4.4 20:18:26 10° SSW 20:24:53 81° SE 20:31:25 10° NE
Cosmos 1953 4.3 20:24:07 10° SW 20:27:32 27° WNW 20:31:00 10° N
STARLINK-1243 4.1 20:23:39 10° W 20:27:36 57° NNW 20:27:36 57° NNW
Iridium 4 Rocket 4.3 20:26:05 10° N 20:28:55 31° NE 20:28:55 31° NE
Cosmos 962 Rocket 4.3 20:24:09 10° N 20:30:24 84° E 20:31:43 58° SSE
STARLINK-1236 4.2 20:28:27 10° W 20:32:12 54° NNW 20:32:12 54° NNW
Nadezhda 1 Rocket 4.2 20:29:47 20° SSW 20:34:20 70° WNW 20:40:45 10° N
SL-8 Rocket 3.9 20:30:03 10° N 20:36:20 66° ENE 20:37:01 61° ESE
ISS -1.2 20:34:35 10° W 20:35:39 17° W 20:35:39 17° W
Cosmos 2058 Rocket 3.4 20:42:38 65° NNW 20:42:38 65° NNW 20:46:37 10° N
SPOT 5 3.1 20:44:26 58° N 20:44:26 58° N 20:47:59 10° NNW
Cosmos 614 Rocket 4.2 20:44:49 58° NE 20:44:49 58° NE 20:49:04 10° NNE
Cosmos 1603 4.1 20:38:31 10° SW 20:44:06 62° WNW 20:49:41 10° NNE
Cosmos 2366 rocket 4.0 20:38:03 10° N 20:44:08 60° ENE 20:44:18 60° E
CZ-4C R/B 4.3 20:42:46 10° NW 20:48:09 27° NNE 20:53:35 12° ENE
CZ-2C R/B 4.1 20:43:52 10° N 20:48:30 34° WNW 20:53:06 10° SW
IGS 5A 4.3 20:49:02 46° WNW 20:49:02 46° WNW 20:52:35 10° NNW
ERS-1 Rocket 3.0 20:48:38 77° W 20:48:38 77° W 20:53:36 10° NNW
Landsat 7 4.3 20:49:39 51° WSW 20:49:51 51° W 20:54:31 10° NNW
Cosmos 1980 Rocket 4.4 20:48:39 10° N 20:51:38 14° NNE 20:53:42 12° NE
Cosmos 1959 Rocket 4.4 20:53:17 10° N 20:59:40 79° E 20:59:53 78° ESE
Cosmos 1656 Rocket 4.4 20:56:14 10° NW 21:01:34 43° WSW 21:02:04 42° WSW
Aureole 1 Rocket 4.2 21:01:51 33° SSW 21:05:43 83° WNW 21:12:10 10° NNE
COSMOS 2455 2.8 21:09:27 10° NW 21:15:09 80° NNW 21:15:09 80° NNW
In-Cosmos 22 Rocket 4.4 21:14:50 10° NNW 21:20:10 73° NW 21:20:10 73° NW
Cosmos 1461 4.5 21:18:13 10° NW 21:20:56 37° NW 21:20:56 37° NW
Cosmos 2369 Rocket 4.4 21:20:08 10° WNW 21:23:18 15° W 21:25:04 13° WSW
Cosmos 1821 Rocket 4.4 21:22:02 10° N 21:27:28 52° NE 21:27:28 52° NE
Cosmos 1763 Rocket 4.5 21:23:41 10° NNW 21:27:28 41° NNE 21:27:28 41° NNE
NOSS 3-4 (A) 4.1 21:23:08 10° NW 21:29:56 55° WSW 21:30:09 55° SW
NOSS 3-4 (C) 4.1 21:23:14 10° NW 21:30:02 56° WSW 21:30:14 56° SW
Terra 3.0 21:32:45 40° NW 21:32:45 40° NW 21:36:09 10° NNW
ATLAS CENTAUR R/B 4.0 21:30:01 10° NNW 21:31:52 15° NNE 21:31:52 15° NNE
Cosmos 1818 4.4 21:39:11 46° N 21:39:11 46° N 21:43:18 10° NE
USA 234 3.9 21:50:52 10° ENE 21:57:10 52° N 22:03:27 10° W
ATLAS 2AS CENTAUR R/B 3.8 21:55:36 10° NW 22:01:48 34° WSW 22:01:48 34° WSW
Cosmos 1697 Rocket 3.7 22:06:08 10° NNW 22:10:12 42° N 22:10:12 42° N
SL-16 R/B 4.4 22:10:12 10° N 22:13:55 17° NNE 22:15:22 16° NE
Mayak 1.3 22:14:09 10° N 22:15:32 19° N 22:15:32 19° N
Cosmos 2322 Rocket 4.3 22:24:28 10° N 22:28:17 18° NE 22:29:38 17° NE
Cosmos 1980 Rocket 3.4 22:31:40 10° NNW 22:35:28 37° N 22:35:28 37° N
CZ-4C R/B 3.3 22:31:31 10° NW 22:38:12 53° NE 22:38:44 52° NE
Cosmos 2082 Rocket 4.1 23:00:52 22° NE 23:00:52 22° NE 23:02:57 10° NE
ATLAS 5 CENTAUR R/B 3.9 23:20:05 23° NNE 23:20:05 23° NNE 23:22:36 10° NE
Cosmos 1833 Rocket 4.0 23:28:31 35° NNE 23:28:31 35° NNE 23:31:44 10° NNE
CZ-2D R/B 4.5 23:30:50 10° NE 23:32:53 15° ENE 23:32:53 15° ENE
Resurs 1-4 Rocket 4.5 23:32:20 10° NE 23:34:06 15° ENE 23:34:06 15° ENE
USA 234 3.9 23:33:20 10° E 23:39:36 51° N 23:45:53 10° WNW
SL-16 R/B 3.4 23:52:44 42° ENE 23:52:44 42° ENE 23:58:31 10° N
